[[{"header":{"parameterUnit":"m.s-1","parameterCategory":1,"la1":30.2991,"la2":30.254,"lo1":-89.0895,"lo2":-89.0444,"dy":0.0017,"dx":0.0017,"nx":28,"ny":28,"refTime":"2024-03-20T09:00:00:Z","depth":0,"parameterNumber":2,"parameterNumberName":"U-component_of_WINDS"},"data":[0,0,0,0,0,0,0,0,0,0,0,0,0,0,0,0,0,0,0,0,0,0,0,0,0,0,0,0,0,0,0,0,0,0,0,0,0,0,0,0,0,0,0,0,0,0,0,0,0,0,0,0,0,0,0,0,0,0,-4.6257,-4.6255,0,-4.6153,-4.6152,-4.615,-4.5959,-4.5955,-4.5952,-4.5948,-4.5847,-4.5848,-4.5849,0,0,0,0,0,0,0,0,0,0,0,0,0,-4.6294,-4.6295,-4.6257,-4.6255,-4.6254,-4.6153,-4.6152,-4.615,-4.596,-4.5955,-4.5951,-4.5947,-4.5847,-4.5848,-4.5849,0,0,0,0,0,0,0,0,0,0,0,0,0,-4.6243,-4.6295,-4.6257,-4.6147,-4.6136,-4.6153,-4.6152,-4.615,-4.5961,-4.5955,-4.595,-4.5944,-4.5847,-4.5848,-4.5849,-4.5967,0,0,-4.5853,-4.5853,0,0,0,0,0,0,0,0,-4.6247,-4.6242,-4.6164,-4.6154,-4.6142,-4.6063,-4.6128,-4.6089,-4.5962,-4.6027,-4.5948,-4.5942,-4.5924,-4.5918,-4.5911,-4.5962,-4.5958,-4.5853,-4.5853,-4.5854,-4.5854,0,0,0,0,0,0,0,-4.625,-4.6246,-4.6216,-4.6163,-4.615,-4.6104,-4.6091,-4.6119,-4.6008,-4.6021,-4.6007,-4.5997,-4.5917,-4.5911,-4.5908,-4.5957,-4.5853,-4.5854,-4.5854,-4.5855,-4.6098,-4.6103,0,0,0,0,0,0,-4.6269,-4.625,-4.6219,-4.6212,-4.6181,-4.6108,-4.6093,-4.6094,-4.6007,-4.5989,-4.6002,-4.5989,-4.5911,-4.5906,-4.5903,-4.6034,-4.5854,-4.5855,-4.5856,-4.6092,-4.6099,-4.6105,0,0,0,0,0,0,-4.6271,-4.6268,-4.6223,-4.6227,-4.6218,-4.6113,-4.6116,-4.6095,-4.6088,-4.5993,-4.5972,-4.6016,-4.5907,-4.5902,-4.5952,-4.6028,-4.5855,-4.5856,-4.6085,-4.6094,-4.6102,-4.6298,0,0,0,0,0,0,-4.6273,-4.627,-4.6313,-4.623,-4.6218,-4.6273,-4.6121,-4.6097,-4.609,-4.6072,-4.6,-4.5983,-4.5902,-4.5951,-4.5953,-4.6026,-4.5857,-4.6078,-4.6089,-4.61,-4.6284,-4.6312,-4.6336,0,0,0,0,0,-4.6275,-4.6373,-4.6316,-4.6313,-4.6269,-4.6277,-4.6271,-4.6174,-4.6097,-4.614,-4.6078,-4.5985,-4.602,-4.5958,-4.5959,-4.6033,-4.6073,-4.6086,-4.6099,-4.6273,-4.6307,-4.6336,0,0,0,0,0,0,-4.647,-4.636,-4.6295,-4.637,-4.6334,-4.6245,-4.6296,-4.6214,-4.6201,-4.6184,-4.6067,-4.6052,-4.6118,-4.6081,-4.6014,-4.6142,-4.6032,-4.6046,-4.6164,-4.6195,-4.6221,-4.6228,-4.5858,0,0,0,0,0,-4.6522,-4.6536,-4.644,-4.6515,-4.65,-4.6402,-4.6402,-4.633,-4.6289,-4.6274,-4.6216,-4.6181,-4.6183,-4.6188,-4.6185,-4.6279,-4.626,-4.6331,-4.6357,-4.6378,-4.6391,-4.6436,-4.6466,-4.6148,-4.6148,-4.6148,0,0,-4.6629,-4.6571,-4.6587,-4.6553,-4.6517,-4.6535,-4.639,-4.6416,-4.6429,-4.6278,-4.632,-4.6278,-4.6231,-4.6303,-4.6332,-4.6274,-4.6475,-4.6395,-4.6413,-4.6414,-4.6453,-4.6483,-4.651,-4.6157,-4.6155,-4.6154,0,0,-4.6832,-4.679,-4.6847,-4.6814,-4.676,-4.6694,-4.6708,-4.6631,-4.6596,-4.6637,-4.6524,-4.6538,-4.6546,-4.6516,-4.6502,-4.6696,-4.6609,-4.6699,-4.6834,-4.6879,-4.6904,-4.6926,-4.6993,-4.7019,-4.6712,-4.6712,-4.6713,0,-4.6972,-4.6993,-4.6887,-4.6919,-4.6907,-4.6771,-4.6828,-4.6801,-4.6751,-4.6747,-4.6682,-4.6687,-4.6647,-4.6709,-4.6756,-4.6751,-4.6763,-4.6705,-4.6909,-4.693,-4.6948,-4.7011,-4.7037,-4.6723,-4.6722,-4.6721,-4.672,0,-4.7167,-4.7184,-4.7237,-4.7189,-4.7183,-4.7229,-4.713,-4.7138,-4.7068,-4.7009,-4.7052,-4.6999,-4.6982,-4.6992,-4.6925,-4.7045,-4.701,-4.693,-4.6816,-4.6991,-4.7048,-4.7071,-4.6739,-4.6735,-4.6732,-4.6729,0,0,-4.7489,-4.7382,-4.7403,-4.7379,-4.731,-4.7322,-4.7362,-4.7343,-4.7351,-4.7322,-4.7351,-4.7361,-4.7285,-4.727,-4.7198,-4.7239,-4.7393,-4.7152,-4.7149,-4.7197,-4.7521,-4.758,-4.761,-4.7336,-4.734,-4.7344,-4.7524,0,-4.7676,-4.7734,-4.764,-4.7721,-4.7735,-4.7606,-4.764,-4.7602,-4.7549,-4.7554,-4.7495,-4.7503,-4.7403,-4.7393,-4.7427,-4.7367,-4.7456,-4.7353,-4.7362,-4.7364,-4.7375,-4.764,-4.7703,-4.7876,-4.7546,-4.7549,-4.7552,0,-4.7901,-4.7881,-4.7962,-4.7887,-4.789,-4.7922,-4.7897,-4.7904,-4.7859,-4.7817,-4.78,-4.7715,-4.7749,-4.764,-4.7685,-4.7617,-4.7616,-4.7587,-4.7591,-4.7587,-4.7467,-4.7641,-4.7929,-4.7954,-4.7586,-4.7584,-4.7581,0,-4.8126,-4.8119,-4.8166,-4.815,-4.8065,-4.809,-4.8056,-4.8005,-4.8,-4.798,-4.7975,-4.796,-4.7952,-4.7942,-4.7855,-4.7784,-4.7911,-4.7795,-4.7876,-4.7879,-4.7907,-4.7906,-4.8197,-4.7911,-4.791,-4.791,-4.7909,0,-4.8343,-4.8398,-4.8265,-4.8294,-4.8352,-4.8244,-4.8305,-4.8258,-4.8214,-4.8232,-4.8121,-4.8141,-4.8026,-4.8034,-4.7966,-4.8013,-4.8011,-4.7978,-4.7959,-4.7986,-4.799,-4.7982,-4.7967,-4.7917,-4.7915,-4.7914,-4.7913,0,-4.8602,-4.8516,-4.8558,-4.8474,-4.8454,-4.85,-4.8428,-4.8452,-4.8391,-4.8416,-4.8416,-4.8321,-4.8325,-4.8237,-4.8224,-4.8178,-4.8254,-4.8215,-4.8269,-4.8255,-4.8341,-4.8333,-4.8635,-4.8668,-4.8364,-4.8367,-4.8369,0,-4.8745,-4.8783,-4.8703,-4.8706,-4.8677,-4.8684,-4.8678,-4.8575,-4.8573,-4.8524,-4.8554,-4.8548,-4.8537,-4.8549,-4.848,-4.8469,-4.8427,-4.8533,-4.8425,-4.8451,-4.8426,-4.8424,-4.8426,-4.8556,-4.856,-4.8563,-4.8565,0,-4.9007,-4.8962,-4.8956,-4.8936,-4.8931,-4.8911,-4.8883,-4.8893,-4.878,-4.8784,-4.8785,-4.8777,-4.8762,-4.8757,-4.8733,-4.8698,-4.8614,-4.8601,-4.8618,-4.8646,-4.8674,-4.8658,-4.8329,-4.8594,-4.8591,-4.8589,-4.8587,-4.8586,-4.921,-4.9238,-4.9185,-4.9182,-4.9151,-4.9127,-4.9145,-4.9086,-4.9085,-4.9063,-4.9003,-4.9014,-4.8968,-4.8926,-4.89,-4.8908,-4.8855,-4.8882,-4.8888,-4.8895,-4.891,-4.8675,-4.8903,-4.8902,-4.8902,-4.8901,-4.89,0,-4.9465,-4.9424,-4.9423,-4.9387,-4.9385,-4.9305,-4.927,-4.9274,-4.9284,-4.9248,-4.9239,-4.924,-4.9235,-4.9166,-4.9153,-4.9172,-4.9133,-4.9172,-4.9168,-4.9161,-4.8959,-4.8944,-4.9204,-4.9204,-4.9204,-4.9204,-4.9203,-4.9203,-4.9597,-4.9638,-4.9588,-4.9613,-4.9573,-4.9581,-4.9568,-4.9546,-4.9516,-4.9522,-4.9516,-4.9471,-4.9421,-4.9403,-4.9395,-4.9375,-4.9374,-4.9426,-4.9393,-4.9205,-4.9176,-4.9148,-4.9133,-4.9428,-4.9428,-4.9594,-4.9595,-4.9596]},{"header":{"parameterUnit":"m.s-1","parameterCategory":1,"la1":30.2991,"la2":30.254,"lo1":-89.0895,"lo2":-89.0444,"dy":0.0017,"dx":0.0017,"nx":28,"ny":28,"refTime":"2024-03-20T09:00:00:Z","depth":0,"parameterNumber":3,"parameterNumberName":"V-component_of_WINDS"},"data":[0,0,0,0,0,0,0,0,0,0,0,0,0,0,0,0,0,0,0,0,0,0,0,0,0,0,0,0,0,0,0,0,0,0,0,0,0,0,0,0,0,0,0,0,0,0,0,0,0,0,0,0,0,0,0,0,0,0,0.4077,0.4077,0,0.4076,0.4076,0.4076,0.3999,0.3997,0.3995,0.3993,0.3997,0.3999,0.4001,0,0,0,0,0,0,0,0,0,0,0,0,0,0.402,0.4021,0.4077,0.4077,0.4077,0.4076,0.4076,0.4076,0.3999,0.3997,0.3994,0.3992,0.3996,0.3999,0.4001,0,0,0,0,0,0,0,0,0,0,0,0,0,0.4035,0.4022,0.4077,0.4039,0.4035,0.4076,0.4076,0.4076,0.4,0.3997,0.3994,0.3991,0.3996,0.3999,0.4002,0.4081,0,0,0.4011,0.4012,0,0,0,0,0,0,0,0,0.4034,0.4037,0.4044,0.4041,0.4038,0.4034,0.4057,0.4078,0.4001,0.4013,0.3993,0.3989,0.4012,0.4014,0.402,0.4081,0.4081,0.4011,0.4013,0.4014,0.4015,0,0,0,0,0,0,0,0.4033,0.4036,0.4077,0.4045,0.4041,0.4024,0.4022,0.4061,0.403,0.4012,0.4006,0.4007,0.401,0.4018,0.402,0.4081,0.4011,0.4014,0.4015,0.4017,0.4212,0.4215,0,0,0,0,0,0,0.4036,0.4036,0.4077,0.4077,0.4028,0.4027,0.4026,0.4039,0.4029,0.4025,0.401,0.4003,0.4014,0.4017,0.402,0.4116,0.4014,0.4017,0.4019,0.4209,0.4213,0.4217,0,0,0,0,0,0,0.4035,0.4041,0.4077,0.4055,0.4058,0.4031,0.4047,0.404,0.4048,0.4028,0.4022,0.4023,0.4012,0.4016,0.4067,0.4115,0.4018,0.4021,0.4205,0.421,0.4215,0.4307,0,0,0,0,0,0,0.4034,0.4041,0.4069,0.4056,0.406,0.4123,0.4049,0.4042,0.4053,0.4045,0.4039,0.4035,0.401,0.4063,0.407,0.4117,0.4023,0.4201,0.4207,0.4213,0.4299,0.4314,0.4327,0,0,0,0,0,0.4032,0.4095,0.4071,0.4076,0.4094,0.4125,0.4128,0.4096,0.4057,0.4086,0.4074,0.4035,0.4108,0.4069,0.4076,0.4125,0.4197,0.4205,0.4213,0.4293,0.4311,0.4327,0,0,0,0,0,0,0.4116,0.4093,0.4066,0.4126,0.4128,0.4112,0.4149,0.4116,0.4131,0.4123,0.4084,0.4084,0.4142,0.4138,0.4095,0.4204,0.4146,0.4156,0.4205,0.4222,0.4235,0.4237,0.4026,0,0,0,0,0,0.4141,0.4166,0.4145,0.4201,0.4203,0.4176,0.4188,0.4164,0.4165,0.4166,0.4157,0.4162,0.4186,0.4203,0.4224,0.4297,0.4297,0.4335,0.4349,0.436,0.437,0.4413,0.4431,0.4242,0.4242,0.4242,0,0,0.4194,0.4184,0.4203,0.4217,0.4216,0.4246,0.4177,0.4211,0.4234,0.4172,0.4221,0.4214,0.4217,0.4281,0.4309,0.428,0.4422,0.437,0.4379,0.4383,0.4423,0.4441,0.4456,0.4247,0.4246,0.4245,0,0,0.4306,0.43,0.4347,0.4347,0.4346,0.4328,0.4339,0.4329,0.4322,0.437,0.4325,0.4353,0.4394,0.4399,0.4407,0.4524,0.4491,0.4532,0.4606,0.4648,0.4663,0.4676,0.4722,0.4738,0.4541,0.4541,0.4541,0,0.4373,0.4414,0.4376,0.4413,0.4423,0.4366,0.4416,0.4419,0.4426,0.4435,0.4401,0.4454,0.4452,0.4518,0.4547,0.4554,0.4569,0.4534,0.4663,0.4676,0.4688,0.4731,0.4748,0.4546,0.4546,0.4545,0.4545,0,0.4498,0.4528,0.4566,0.4573,0.4587,0.463,0.4601,0.462,0.4594,0.458,0.4632,0.4627,0.4648,0.4661,0.4637,0.4726,0.4708,0.4669,0.4611,0.4712,0.4752,0.4768,0.4554,0.4552,0.455,0.4549,0,0,0.4665,0.465,0.4666,0.467,0.4665,0.4688,0.473,0.4749,0.4768,0.4774,0.4812,0.4849,0.4814,0.4823,0.4799,0.4835,0.4934,0.4793,0.4792,0.4823,0.5037,0.5069,0.5088,0.491,0.4913,0.4915,0.5038,0,0.4777,0.4847,0.4814,0.4889,0.4918,0.4866,0.4903,0.4906,0.4894,0.4919,0.4907,0.4936,0.4885,0.4891,0.4924,0.4915,0.4977,0.4905,0.4948,0.495,0.4953,0.5109,0.5142,0.5258,0.5053,0.5055,0.5057,0,0.4917,0.493,0.5007,0.4999,0.501,0.5044,0.5061,0.5084,0.5087,0.5077,0.5088,0.5056,0.51,0.504,0.5103,0.5055,0.5071,0.5069,0.5073,0.5079,0.5013,0.5123,0.5294,0.5313,0.5081,0.5079,0.5077,0,0.5037,0.5072,0.5124,0.5128,0.5119,0.5145,0.5143,0.5143,0.5158,0.5173,0.5183,0.5203,0.5215,0.5233,0.5209,0.5166,0.5277,0.5214,0.5273,0.5275,0.5302,0.5301,0.5482,0.5305,0.5305,0.5305,0.5304,0,0.5168,0.5218,0.5178,0.521,0.5266,0.5229,0.5287,0.5279,0.528,0.5313,0.5268,0.53,0.5264,0.5293,0.5275,0.5332,0.5337,0.5333,0.5328,0.5339,0.5341,0.5352,0.5345,0.5309,0.5308,0.5307,0.5307,0,0.5312,0.5286,0.534,0.5327,0.5325,0.5368,0.5358,0.539,0.5374,0.5417,0.5424,0.5402,0.5435,0.5412,0.5444,0.5432,0.5509,0.5491,0.5508,0.5505,0.5567,0.5564,0.5765,0.5792,0.5594,0.5596,0.5597,0,0.5399,0.5437,0.5428,0.5446,0.5447,0.5475,0.549,0.5455,0.5473,0.5481,0.5513,0.5541,0.5562,0.5617,0.5606,0.5632,0.5617,0.5686,0.5621,0.5632,0.5624,0.5624,0.5629,0.57,0.5703,0.5705,0.5706,0,0.5559,0.5544,0.5566,0.5584,0.5602,0.5615,0.5625,0.5643,0.5608,0.5631,0.5663,0.5679,0.5712,0.5743,0.5765,0.5766,0.5733,0.5726,0.5742,0.5756,0.5767,0.5767,0.5549,0.5723,0.5721,0.572,0.5719,0.5718,0.568,0.5713,0.5712,0.5739,0.5742,0.5753,0.5782,0.5771,0.5797,0.582,0.5798,0.5839,0.5844,0.5869,0.5875,0.5908,0.588,0.5902,0.5909,0.5916,0.5927,0.5758,0.5911,0.5911,0.591,0.591,0.5909,0,0.5842,0.5839,0.5863,0.5878,0.59,0.5862,0.5872,0.5894,0.5929,0.5935,0.5957,0.5996,0.6026,0.6017,0.6045,0.6074,0.6059,0.6083,0.6083,0.6084,0.5948,0.5933,0.6094,0.6094,0.6094,0.6094,0.6094,0.6094,0.5928,0.5983,0.5968,0.6025,0.6022,0.606,0.6069,0.608,0.6085,0.6131,0.6155,0.6147,0.615,0.6177,0.6204,0.6201,0.6216,0.6246,0.6238,0.6111,0.6093,0.6076,0.6062,0.6248,0.6248,0.6372,0.6373,0.6374]}]]